Location: Unspecified
(0.0000°N, 0.0000°E)
Time: 18:06:39
(UTC+02:00)

Tiros 1 despin weight - Visible Passes

Search period start: 29 March 2015 00:00
Search period end: 08 April 2015 01:00
Orbit: 599 x 648 km, 48.2° (Epoch: 29 March)

Date Brightness Start Highest point End Pass type
(mag) Time Alt. Az. Time Alt. Az. Time Alt. Az.
29 Mar ? 06:11:18 33° NE 06:11:52 35° NE 06:15:59 10° ESE visible
30 Mar ? 06:30:18 74° SSW 06:30:18 74° SSW 06:34:36 10° SE visible
31 Mar ? 06:49:09 24° SSW 06:49:09 24° SSW 06:52:06 10° S visible
